Location: Fountain Hills
(33.6120°N, 111.7170°W)
Time: 18:00:36
(UTC-07:00)

Daily predictions for brighter satellites

Satellite Brightness Start Highest point End
(mag) Time Altitude Azimuth Time Altitude Azimuth Time Altitude Azimuth
Thor Agena Rocket 4.1 19:20:16 10° NNE 19:25:05 36° E 19:29:54 10° SSE
In-Cosmos 22 Rocket 4.4 19:20:58 10° N 19:26:13 48° ENE 19:31:21 10° SSE
OAO 2 Rocket 3.5 19:22:44 10° W 19:28:01 82° N 19:33:10 10° E
Cosmos 1805 Rocket 3.8 19:26:16 10° N 19:30:28 47° E 19:34:37 10° SSE
ATLAS CENTAUR R/B 1.4 19:28:49 10° S 19:32:12 41° ESE 19:35:43 10° NE
ATLAS 2AS CENTAUR R/B 4.0 19:26:43 10° NNW 19:33:22 29° NE 19:39:33 10° ESE
SL-8 R/B 3.7 19:29:11 10° SW 19:33:54 67° SE 19:38:40 10° ENE
Cosmos 2154 Rocket 4.1 19:34:22 10° S 19:40:30 60° E 19:46:37 10° NNE
SL-16 R/B 4.0 19:43:11 10° E 19:43:16 10° E 19:43:33 10° E
Resurs 01 Rocket 2.8 19:39:47 10° SE 19:43:24 25° ENE 19:47:01 10° NNE
Cosmos 2184 Rocket 4.4 19:37:45 10° SSW 19:43:53 69° W 19:50:02 10° N
SJ-6B 2.8 19:41:09 10° SSE 19:45:10 66° ENE 19:49:08 10° N
Cosmos 1939 Rocket 3.6 19:49:00 11° SE 19:52:13 33° ENE 19:55:43 10° N
Meteor 2-21 4.4 19:47:47 10° S 19:53:54 81° E 20:00:06 10° N
Meteor 2-3 Rocket 4.2 19:52:27 10° N 19:57:42 40° ENE 20:02:32 12° SE
deb Centaur AC-2 4.3 19:54:48 10° W 19:59:01 53° S 20:02:12 18° ESE
ATLAS 3B CENTAUR R/B 4.5 19:47:07 10° W 20:02:02 35° SW 20:08:35 10° SSE
Cosmos 2341 Rocket 4.1 19:57:41 10° S 20:03:57 62° E 20:10:11 10° NNE
Aureole 2 4.1 20:00:55 10° S 20:04:00 56° ESE 20:06:54 10° NNE
NOSS 0 Rocket 3.9 19:58:20 10° S 20:04:24 65° ESE 20:10:32 10° NNE
Cosmos 962 Rocket 4.4 19:59:31 10° S 20:05:33 66° E 20:11:38 10° NNE
NOSS 3-3 (A) 4.4 20:01:01 10° SW 20:06:54 65° WNW 20:13:18 10° NNE
NOSS 3-3 (C) 4.4 20:01:08 10° SW 20:07:00 65° WNW 20:13:24 10° NNE
Cosmos 1980 3.7 20:03:26 10° S 20:08:59 60° ESE 20:14:35 10° NNE
Cosmos 1666 Rocket 3.5 20:06:43 10° N 20:11:12 87° E 20:15:38 10° S
Cosmos 1408 4.0 20:09:41 10° NNE 20:12:32 21° ENE 20:12:37 21° E
USA 186 0.6 20:12:04 46° SSE 20:12:35 80° ENE 20:14:50 10° N
ERS-2 2.2 20:09:27 10° S 20:13:05 77° WSW 20:16:46 10° NNW
Cosmos 1295 Rocket 4.5 20:06:55 10° S 20:13:13 72° E 20:19:30 10° N
Cosmos 1455 2.1 20:11:03 10° S 20:14:51 90° WNW 20:18:43 10° N
CZ-2D R/B 4.2 20:11:12 10° S 20:14:51 47° W 20:18:33 10° NNW
Cosmos 220 Rocket 4.4 20:11:32 10° N 20:15:40 42° ENE 20:17:27 27° ESE
Cosmos 1151 Rocket 3.2 20:12:23 11° SSE 20:16:20 48° E 20:20:26 10° NNE
Resurs 1-3 3.6 20:13:11 17° SSE 20:16:27 63° ENE 20:20:47 10° N
Cosmos 1933 Rocket 4.4 20:13:18 10° NNE 20:17:11 30° ENE 20:18:15 27° ESE
H-2A R/B 3.8 20:17:10 13° ENE 20:17:40 14° ENE 20:20:05 10° NE
USA 267 4.1 20:14:22 10° ENE 20:19:33 25° ESE 20:24:42 10° S
Cosmos 1371 Rocket 4.4 20:14:44 10° S 20:19:39 41° E 20:24:37 10° NNE
Cosmos 2333 Rocket 2.7 20:14:22 10° SSW 20:19:59 64° WNW 20:25:37 10° NNE
Cosmos 2366 rocket 4.5 20:15:37 15° SSE 20:20:07 38° E 20:25:49 10° NNE
Sich 1 3.4 20:16:47 10° NNW 20:21:01 62° W 20:25:12 10° S
Meteor 1-27 4.3 20:17:32 10° S 20:23:18 84° W 20:29:00 10° N
ATLAS 2A CENTAUR R/B 3.8 20:19:52 10° WSW 20:23:23 18° SW 20:24:24 15° S
YAOGAN 6 2.7 20:22:57 18° S 20:25:32 75° W 20:29:10 10° NNW
Cosmos 1892 3.1 20:22:55 10° NNW 20:26:46 62° W 20:30:13 12° S
Cosmos 1844 Rocket 3.1 20:21:42 10° NNW 20:27:18 62° WSW 20:32:29 12° S
OAO 1 4.5 20:23:28 10° W 20:28:58 79° SSW 20:31:34 32° ESE
SL-8 Rocket 4.0 20:22:52 10° S 20:29:04 64° E 20:35:17 10° NNE
Envisat 4.1 20:24:16 10° S 20:29:05 44° W 20:33:56 10° NNW
Cosmos 2251 Rocket 4.3 20:28:52 10° NNW 20:34:04 52° WSW 20:39:11 10° S
Cosmos 2219 Rocket 3.6 20:29:01 10° SW 20:34:18 40° WNW 20:39:36 10° N
Cosmos 1844 3.9 20:28:43 10° NNW 20:34:25 72° WSW 20:38:39 19° S
SJ-11-01 4.1 20:32:11 25° SSE 20:34:55 82° ENE 20:39:36 10° N
Cosmos 2237 Rocket 2.2 20:30:42 10° SSW 20:36:19 84° WNW 20:41:58 10° NNE
Genesis I 3.4 20:35:28 10° NNW 20:39:29 55° ENE 20:40:01 51° E
Cosmos 2056 Rocket 3.7 20:37:10 18° S 20:41:05 52° ESE 20:46:19 10° NNE
Cosmos 1633 Rocket 4.0 20:38:58 10° NNW 20:43:07 46° W 20:46:57 12° SSW
Cosmos 2098 Rocket 3.1 20:47:46 49° SE 20:48:43 60° E 20:52:45 10° NNE
Cosmos 2278 Rocket 2.2 20:44:32 10° NNW 20:50:11 63° ENE 20:51:44 45° SE
Cosmos 1515 Rocket 4.1 20:45:51 10° SSW 20:50:14 60° W 20:54:39 10° N
NOAA 11 4.1 20:47:34 32° SSE 20:50:16 86° ENE 20:55:48 10° NNW
Cosmos 2228 Rocket 3.9 20:51:26 10° SSW 20:55:41 50° W 20:59:59 10° N
Cosmos 1624 Rocket 3.8 20:53:53 16° SSW 20:58:03 82° ESE 21:03:15 10° NNE
Cosmos 864 Rocket 4.3 20:56:37 24° S 21:00:31 82° E 21:06:40 10° N
ASTRO E2 4.0 20:58:39 10° WSW 21:00:59 30° SW 21:00:59 30° SW
Cosmos 1825 2.5 21:01:22 10° N 21:04:39 64° NNW 21:04:39 64° NNW
Sakura Rocket 4.1 21:05:45 10° WSW 21:08:35 31° SW 21:08:35 31° SW
Spot 2 Rocket 4.3 21:09:25 26° SSW 21:11:54 46° W 21:16:47 10° NNW
OAO 2 Rocket 3.7 21:07:45 10° W 21:12:37 50° SSW 21:12:37 50° SSW
Resurs 01 Rocket 3.7 21:17:10 15° SW 21:19:45 24° W 21:23:20 10° NW
ATLAS 2AS CENTAUR R/B 3.2 21:17:15 10° NW 21:24:49 60° WSW 21:27:11 42° S
GEOS 3 Rocket 3.5 21:19:32 10° NNE 21:24:42 83° ENE 21:24:42 83° ENE
SL-16 R/B 2.2 21:24:48 46° SSW 21:26:34 80° WNW 21:32:15 10° NNE
ARGOS 3.0 21:29:47 85° W 21:29:47 85° W 21:35:06 10° NNW
MetOp-B 4.1 21:32:28 78° N 21:32:28 78° N 21:37:28 10° NNW
Cosmos 1821 Rocket 4.5 21:42:14 48° NE 21:42:14 48° NE 21:47:00 10° NNE
Cosmos 1727 Rocket 4.0 21:36:21 10° N 21:42:29 71° W 21:42:59 68° SW
ATLAS 2A CENTAUR R/B 3.7 21:27:24 10° WSW 21:44:21 52° S 21:44:53 52° SSE
ERS-1 Rocket 3.7 21:50:08 50° NNW 21:50:08 50° NNW 21:53:50 10° NNW
NOSS 3-4 (A) 3.8 21:48:12 10° NNW 21:55:20 73° NE 21:55:20 73° NE
NOSS 3-4 (C) 3.8 21:48:18 10° NNW 21:55:26 73° NE 21:55:26 73° NE
Cosmos 407 Rocket 4.4 21:51:05 10° NNW 21:54:44 46° NW 21:54:44 46° NW
H-2A R/B 2.9 21:57:48 45° NW 21:57:48 45° NW 22:01:31 10° NNW
Cosmos 2344 3.5 21:51:41 10° SW 21:59:23 79° WNW 22:07:27 10° NNE
Cosmos 2297 4.3 21:57:02 10° NNW 22:01:18 53° NNW 22:01:18 53° NNW
USA 267 3.3 21:56:18 10° NE 22:02:49 72° NW 22:09:18 10° SW
Cosmos 2369 Rocket 4.3 22:04:57 10° N 22:07:06 17° NNE 22:07:06 17° NNE
Terra 4.1 22:27:10 19° N 22:27:10 19° N 22:28:34 10° N
CZ-4C R/B 4.2 22:29:46 20° NNE 22:29:46 20° NNE 22:31:32 10° NNE
ATLAS 5 CENTAUR R/B 4.2 22:32:34 10° N 22:35:41 22° NNE 22:35:41 22° NNE
Centaur D-1A AC-31 4.5 22:45:40 10° WSW 22:46:01 11° WSW 22:46:01 11° WSW
Cosmos 1943 Rocket 4.5 23:16:10 10° NNW 23:17:39 19° N 23:17:39 19° N
